Location: Lane
(33.5226°N, 79.8788°W)
Time: 06:16:25
(UTC+00:00)

Vanguard 2 - Pass Details

Date: 09 October 2022
Orbit: 553 x 2933 km, 32.9° (Epoch: 26 November)

Event Time Altitude Azimuth Distance (km) Brightness Sun altitude
Rises 22:51:17 0° 282° (WNW) 5,849 13.7 -0.4°
Reaches altitude 10° 22:55:10 10° 275° (W) 5,110 13.6 -1.2°
Maximum altitude 23:09:03 38° 215° (SW) 3,835 11.5 -4.1°
Drops below altitude 10° 23:24:29 10° 155° (SSE) 5,614 11.7 -7.3°
Sets 23:29:05 0° 147° (SSE) 6,458 11.9 -8.3°
